Location: Iesi
(43.5167°N, 13.2333°E)
Time: 02:19:44
(UTC+00:00)

ATLAS 5 CENTAUR R/B - Pass Details

Date: 08 August 2020
Orbit: 533 x 1125 km, 63.4° (Epoch: 18 September)

Event Time Altitude Azimuth Distance (km) Brightness Sun altitude
Rises 20:46:17 0° 311° (NW) 3,409 6.8 -21.9°
Reaches altitude 10° 20:49:02 10° 298° (WNW) 2,568 5.6 -22.2°
Maximum altitude 20:53:49 25° 246° (WSW) 1,860 4.1 -22.7°
Enters shadow 20:57:16 17° 206° (SSW) 2,362 4.2 -23.1°
